Location: Chacón
(10.5789°N, 66.9317°W)
Time: 04:47:20
(UTC+00:00)

Cosmos 962 Rocket - Pass Details

Date: 17 October 2025
Orbit: 950 x 998 km, 82.9° (Epoch: 17 November)

Event Time Altitude Azimuth Distance (km) Brightness Sun altitude
Rises 07:35:46 0° 24° (NNE) 3,687 7.7 -40.1°
Reaches altitude 10° 07:39:11 10° 42° (NE) 2,730 7.2 -39.3°
Maximum altitude 07:43:16 18° 83° (E) 2,187 6.9 -38.3°
Drops below altitude 10° 07:47:19 10° 125° (SE) 2,709 7.4 -37.3°
Sets 07:50:40 0° 143° (SE) 3,646 8.0 -36.5°
